Location: Austin
(30.3000°N, 97.7500°W)
Time: 10:45:13
(UTC-05:00)

Atlas Centaur 2 - Pass Details

Date: 26 May 2023
Orbit: 458 x 1293 km, 30.4° (Epoch: 31 May)

Event Time Altitude Azimuth Distance (km) Brightness Sun altitude
Rises 23:24:55 0° 278° (W) 3,086 5.7 -30.6°
Reaches altitude 10° 23:27:37 10° 274° (W) 2,030 4.6 -30.9°
Enters shadow 23:28:51 17° 269° (W) 1,558 3.9 -31.0°
